[[{"header":{"parameterUnit":"m.s-1","parameterCategory":1,"la1":30.2991,"la2":30.254,"lo1":-89.0895,"lo2":-89.0444,"dy":0.0017,"dx":0.0017,"nx":28,"ny":28,"refTime":"2023-07-26T03:00:00:Z","depth":0,"parameterNumber":2,"parameterNumberName":"U-component_of_WINDS"},"data":[0,0,0,0,0,0,0,0,0,0,0,0,0,0,0,0,0,0,0,0,0,0,0,0,0,0,0,0,0,0,0,0,0,0,0,0,0,0,0,0,0,0,0,0,0,0,0,0,0,0,0,0,0,0,0,0,0,0,1.7815,1.7816,0,1.788,1.7881,1.7881,1.7879,1.7878,1.7877,1.7876,1.7941,1.7943,1.7946,0,0,0,0,0,0,0,0,0,0,0,0,0,1.7686,1.7688,1.7815,1.7816,1.7816,1.788,1.7881,1.7881,1.7879,1.7878,1.7877,1.7876,1.794,1.7943,1.7946,0,0,0,0,0,0,0,0,0,0,0,0,0,1.7745,1.7689,1.7815,1.7823,1.7824,1.7879,1.7881,1.7882,1.7879,1.7878,1.7876,1.7875,1.7939,1.7942,1.7946,1.7997,0,0,1.7958,1.796,0,0,0,0,0,0,0,0,1.7742,1.775,1.7821,1.7822,1.7824,1.787,1.7859,1.792,1.788,1.7858,1.7876,1.7875,1.7918,1.7923,1.7939,1.8,1.8003,1.7958,1.7961,1.7962,1.7963,0,0,0,0,0,0,0,1.7738,1.7747,1.784,1.7822,1.7824,1.7822,1.7829,1.787,1.7895,1.786,1.786,1.7868,1.7919,1.7935,1.794,1.8004,1.7958,1.7962,1.7964,1.7965,1.8107,1.8109,0,0,0,0,0,0,1.7732,1.7744,1.7838,1.7842,1.7779,1.7826,1.7834,1.7856,1.7894,1.7899,1.7869,1.7867,1.7929,1.7936,1.7942,1.8002,1.7962,1.7966,1.7968,1.8106,1.8108,1.8109,0,0,0,0,0,0,1.7729,1.7741,1.7836,1.7793,1.7805,1.7829,1.7855,1.7858,1.7875,1.7901,1.7905,1.7881,1.7928,1.7937,1.7983,1.8005,1.7968,1.7971,1.8104,1.8106,1.8109,1.8124,0,0,0,0,0,0,1.7726,1.774,1.776,1.7794,1.7807,1.7876,1.7857,1.7861,1.7882,1.788,1.7914,1.7918,1.7928,1.7977,1.7987,1.8009,1.7974,1.8102,1.8105,1.8108,1.8122,1.8126,1.8131,0,0,0,0,0,1.7721,1.7762,1.7761,1.7773,1.7834,1.7878,1.7885,1.7896,1.7883,1.7903,1.792,1.7917,1.8001,1.7982,1.7993,1.8017,1.8101,1.8104,1.8108,1.812,1.8126,1.8131,0,0,0,0,0,0,1.773,1.7767,1.7766,1.7819,1.7845,1.7877,1.7903,1.7903,1.7933,1.793,1.7942,1.7949,1.7995,1.8011,1.7989,1.8066,1.8049,1.8055,1.8055,1.806,1.8065,1.806,1.7977,0,0,0,0,0,1.7738,1.7772,1.7802,1.7846,1.7859,1.7879,1.7898,1.7904,1.7932,1.7943,1.7963,1.7989,1.8021,1.8042,1.8073,1.8124,1.813,1.8146,1.815,1.8154,1.8158,1.8184,1.8191,1.812,1.812,1.812,0,0,1.7755,1.778,1.78,1.7848,1.7869,1.7902,1.7888,1.7924,1.7949,1.7948,1.7992,1.8008,1.8038,1.8086,1.8108,1.81,1.8179,1.8158,1.8161,1.8163,1.8188,1.8195,1.8201,1.8122,1.8122,1.8122,0,0,1.7803,1.7826,1.7864,1.7885,1.7917,1.793,1.7939,1.797,1.7981,1.8026,1.8025,1.8054,1.811,1.813,1.8148,1.8202,1.8199,1.8212,1.8235,1.826,1.8266,1.8271,1.8288,1.8294,1.8216,1.8216,1.8216,0,1.782,1.7872,1.7883,1.7919,1.7939,1.7941,1.7978,1.7998,1.8038,1.8052,1.8042,1.8111,1.8131,1.8183,1.8196,1.8211,1.8221,1.8208,1.8264,1.8269,1.8274,1.8291,1.8297,1.8217,1.8217,1.8217,1.8217,0,1.789,1.7925,1.7952,1.799,1.8014,1.8051,1.8067,1.8089,1.8092,1.8105,1.815,1.8174,1.8209,1.8222,1.8227,1.8275,1.8269,1.8262,1.8244,1.8282,1.8297,1.8304,1.8219,1.8219,1.8218,1.8218,0,0,1.7945,1.7989,1.7999,1.8015,1.805,1.8077,1.8113,1.8148,1.8165,1.8193,1.8222,1.8269,1.8262,1.8282,1.8288,1.8311,1.835,1.8301,1.8302,1.8308,1.8402,1.8406,1.8413,1.8349,1.835,1.8351,1.8399,0,1.7995,1.806,1.8071,1.8127,1.8158,1.8159,1.819,1.8214,1.8227,1.8255,1.8269,1.8301,1.8291,1.8302,1.8325,1.834,1.8369,1.8337,1.8375,1.8376,1.8366,1.8422,1.8427,1.847,1.8405,1.8406,1.8407,0,1.8063,1.8092,1.8151,1.8179,1.8193,1.8221,1.8252,1.828,1.8306,1.8314,1.8336,1.8339,1.8375,1.8357,1.8405,1.8383,1.8399,1.8409,1.8411,1.8414,1.8393,1.8424,1.8485,1.8491,1.8417,1.8417,1.8416,0,1.8095,1.8149,1.819,1.8205,1.824,1.8259,1.8275,1.83,1.832,1.8347,1.8359,1.8391,1.8407,1.8431,1.8442,1.8428,1.8489,1.8472,1.8495,1.8495,1.8507,1.8506,1.8569,1.852,1.852,1.852,1.852,0,1.8149,1.8185,1.8205,1.8231,1.827,1.8282,1.832,1.8335,1.8357,1.8384,1.8387,1.8413,1.8427,1.8454,1.8463,1.85,1.8508,1.8514,1.8516,1.8513,1.8512,1.8523,1.852,1.8521,1.8521,1.8521,1.852,0,1.8191,1.8207,1.8252,1.8281,1.8289,1.8317,1.8341,1.8365,1.8378,1.8412,1.8421,1.8441,1.8473,1.8486,1.8526,1.8532,1.8574,1.8575,1.8565,1.8566,1.8587,1.8584,1.8658,1.8668,1.8613,1.8614,1.8614,0,1.8224,1.8251,1.8283,1.8302,1.8318,1.8348,1.8368,1.838,1.84,1.8431,1.8451,1.8483,1.851,1.856,1.8577,1.8607,1.8607,1.8631,1.8611,1.8607,1.8605,1.8603,1.8605,1.8634,1.8634,1.8635,1.8635,0,1.828,1.8286,1.8315,1.8345,1.8369,1.8394,1.8418,1.8433,1.8448,1.8471,1.8503,1.8524,1.8564,1.8595,1.8625,1.864,1.864,1.8641,1.8648,1.8645,1.8637,1.864,1.8573,1.8639,1.8639,1.8639,1.8638,1.8638,1.8317,1.8341,1.8367,1.8398,1.8417,1.8439,1.8463,1.8478,1.8506,1.8539,1.8545,1.8579,1.8603,1.8644,1.866,1.8686,1.868,1.869,1.8692,1.8694,1.8694,1.8634,1.8692,1.8692,1.8692,1.8692,1.8692,0,1.8372,1.8388,1.8417,1.845,1.8474,1.8473,1.8499,1.8519,1.8549,1.8572,1.8598,1.8634,1.8664,1.8683,1.8713,1.873,1.8731,1.8738,1.8736,1.8739,1.8699,1.869,1.8736,1.8736,1.8736,1.8736,1.8736,1.8736,1.8403,1.8442,1.8451,1.8499,1.8515,1.8548,1.8563,1.8583,1.8601,1.8642,1.8667,1.8679,1.87,1.8731,1.8758,1.8763,1.8773,1.878,1.8784,1.8746,1.8742,1.8737,1.8728,1.8782,1.8782,1.8821,1.8821,1.8821]},{"header":{"parameterUnit":"m.s-1","parameterCategory":1,"la1":30.2991,"la2":30.254,"lo1":-89.0895,"lo2":-89.0444,"dy":0.0017,"dx":0.0017,"nx":28,"ny":28,"refTime":"2023-07-26T03:00:00:Z","depth":0,"parameterNumber":3,"parameterNumberName":"V-component_of_WINDS"},"data":[0,0,0,0,0,0,0,0,0,0,0,0,0,0,0,0,0,0,0,0,0,0,0,0,0,0,0,0,0,0,0,0,0,0,0,0,0,0,0,0,0,0,0,0,0,0,0,0,0,0,0,0,0,0,0,0,0,0,0.3036,0.3035,0,0.2947,0.2946,0.2945,0.2876,0.2875,0.2875,0.2874,0.278,0.2778,0.2776,0,0,0,0,0,0,0,0,0,0,0,0,0,0.3142,0.314,0.3036,0.3035,0.3033,0.2947,0.2946,0.2944,0.2876,0.2875,0.2875,0.2874,0.278,0.2778,0.2776,0,0,0,0,0,0,0,0,0,0,0,0,0,0.3078,0.314,0.3036,0.2989,0.2984,0.2947,0.2946,0.2944,0.2876,0.2875,0.2874,0.2873,0.2781,0.2778,0.2775,0.2777,0,0,0.2767,0.2765,0,0,0,0,0,0,0,0,0.3082,0.3075,0.2997,0.2992,0.2986,0.2922,0.2948,0.2888,0.2877,0.2917,0.2874,0.2873,0.2827,0.2821,0.2806,0.2773,0.2769,0.2766,0.2765,0.2763,0.2763,0,0,0,0,0,0,0,0.3087,0.3078,0.3,0.2996,0.2989,0.2971,0.2961,0.2937,0.2879,0.2913,0.2908,0.2899,0.2824,0.2809,0.2803,0.2767,0.2766,0.2764,0.2762,0.2761,0.2728,0.2729,0,0,0,0,0,0,0.3099,0.3082,0.3003,0.2998,0.3033,0.297,0.2959,0.2943,0.2879,0.2868,0.29,0.2896,0.2814,0.2807,0.28,0.2796,0.2763,0.2761,0.2759,0.2727,0.2728,0.2729,0,0,0,0,0,0,0.3101,0.3092,0.3007,0.3038,0.3026,0.2969,0.2952,0.2942,0.2927,0.2868,0.2857,0.2895,0.2813,0.2804,0.2783,0.2792,0.2759,0.2757,0.2726,0.2728,0.2729,0.279,0,0,0,0,0,0,0.3105,0.3094,0.3095,0.3039,0.3025,0.2993,0.2953,0.2941,0.2922,0.2917,0.2861,0.2851,0.2812,0.2788,0.278,0.2787,0.2755,0.2725,0.2727,0.2728,0.2787,0.2793,0.2798,0,0,0,0,0,0.3109,0.3115,0.3096,0.3086,0.3025,0.2994,0.2985,0.2941,0.2923,0.2923,0.2885,0.2853,0.2792,0.2786,0.2777,0.2784,0.2724,0.2726,0.2728,0.2784,0.2792,0.2798,0,0,0,0,0,0,0.3173,0.3107,0.3084,0.3074,0.304,0.2982,0.2981,0.2951,0.2921,0.2917,0.2862,0.285,0.2835,0.2807,0.2801,0.278,0.2754,0.2754,0.2799,0.2806,0.2812,0.2819,0.2752,0,0,0,0,0,0.3186,0.3168,0.311,0.3106,0.3091,0.3039,0.3024,0.2992,0.2955,0.294,0.2901,0.2864,0.2837,0.282,0.2792,0.2782,0.2768,0.2782,0.2788,0.2793,0.2794,0.2785,0.279,0.2735,0.2735,0.2735,0,0,0.3213,0.3175,0.3166,0.3118,0.3088,0.3069,0.3027,0.3009,0.2993,0.2937,0.2915,0.2885,0.284,0.2825,0.2816,0.2801,0.2805,0.2795,0.28,0.2798,0.2787,0.2792,0.2797,0.2737,0.2736,0.2736,0,0,0.3251,0.3221,0.3214,0.3185,0.314,0.3106,0.3104,0.305,0.3028,0.3006,0.2963,0.2942,0.2897,0.2866,0.2845,0.287,0.2838,0.2862,0.2892,0.2884,0.2889,0.2892,0.29,0.2904,0.2863,0.2863,0.2863,0,0.329,0.326,0.3213,0.3197,0.3176,0.3125,0.3116,0.309,0.3038,0.3024,0.3008,0.2949,0.2915,0.2891,0.2898,0.2882,0.2877,0.2868,0.2892,0.2895,0.2898,0.2904,0.2908,0.2866,0.2866,0.2866,0.2865,0,0.3308,0.3288,0.3287,0.3239,0.3218,0.3206,0.3156,0.314,0.311,0.3077,0.3053,0.3011,0.2972,0.2964,0.2935,0.2935,0.2927,0.2903,0.2875,0.2907,0.2912,0.2914,0.2871,0.287,0.2869,0.2868,0,0,0.3386,0.3312,0.3312,0.3289,0.3236,0.3218,0.3202,0.3165,0.3152,0.3118,0.3102,0.3064,0.304,0.3016,0.2982,0.2975,0.2996,0.2951,0.2949,0.296,0.2992,0.3011,0.3015,0.2974,0.2975,0.2975,0.2996,0,0.3415,0.3385,0.3342,0.3326,0.3305,0.3256,0.3241,0.3206,0.3174,0.315,0.3114,0.3088,0.3059,0.3044,0.3035,0.2996,0.3002,0.2993,0.2958,0.2957,0.297,0.3018,0.3038,0.3059,0.2997,0.2998,0.2998,0,0.3446,0.3415,0.3397,0.3344,0.3333,0.3322,0.3283,0.3262,0.322,0.3197,0.317,0.3133,0.3111,0.3087,0.3055,0.3051,0.3033,0.3011,0.3011,0.3006,0.2979,0.3013,0.3065,0.3068,0.3001,0.3001,0.3001,0,0.3503,0.3456,0.3439,0.3421,0.3359,0.3351,0.3325,0.3282,0.3262,0.3228,0.3214,0.3178,0.3158,0.313,0.3084,0.307,0.3057,0.3029,0.3036,0.3037,0.3035,0.3036,0.3085,0.3025,0.3025,0.3025,0.3025,0,0.354,0.353,0.3464,0.3453,0.344,0.339,0.3378,0.3347,0.3309,0.329,0.3244,0.3227,0.3168,0.3143,0.3106,0.3085,0.3076,0.3056,0.3046,0.306,0.3062,0.3047,0.3044,0.3026,0.3025,0.3025,0.3025,0,0.3602,0.3557,0.3534,0.3477,0.3463,0.3456,0.3406,0.3393,0.3357,0.3334,0.3325,0.3269,0.3238,0.3189,0.3142,0.3118,0.3102,0.3087,0.3117,0.3111,0.312,0.312,0.3161,0.3163,0.3103,0.3104,0.3104,0,0.3628,0.362,0.3562,0.3546,0.3522,0.3497,0.3477,0.3426,0.3406,0.3357,0.3349,0.3314,0.3284,0.3235,0.3189,0.3153,0.3135,0.3152,0.3129,0.3143,0.3134,0.3135,0.3133,0.3157,0.3158,0.3159,0.316,0,0.3679,0.3657,0.363,0.3595,0.3572,0.3541,0.3508,0.3498,0.344,0.3419,0.3387,0.3363,0.3316,0.3281,0.3238,0.3208,0.3174,0.3167,0.3167,0.318,0.3198,0.3187,0.3131,0.3166,0.3166,0.3165,0.3165,0.3165,0.3723,0.3713,0.367,0.3641,0.3611,0.3581,0.3566,0.3528,0.3501,0.3459,0.343,0.3399,0.3355,0.3294,0.3266,0.324,0.3225,0.3225,0.3225,0.3225,0.323,0.3203,0.3232,0.3232,0.3232,0.3231,0.3231,0,0.3771,0.3741,0.3715,0.3671,0.3647,0.3618,0.3579,0.3561,0.3535,0.3497,0.3468,0.343,0.3395,0.3347,0.3308,0.3296,0.3279,0.3287,0.3288,0.3281,0.3246,0.325,0.3302,0.3302,0.3302,0.3302,0.3302,0.3302,0.3794,0.3774,0.3747,0.3712,0.3681,0.3651,0.3632,0.3603,0.3573,0.3532,0.3504,0.3473,0.343,0.3388,0.3354,0.334,0.3327,0.3341,0.3322,0.329,0.3284,0.3277,0.3281,0.3339,0.3339,0.3359,0.336,0.336]}]]